PIC Brief
Powered by WingX® Technology

WingX Pro7 for iPad now with IAP Routing   Click for AppStore

Airport Status Wx Images Instructions Send feedback
Apt, Navaid, Fix, Name, City, Route, FAR:
N-Number:

KCUB - Jim Hamilton L B Owens

Communications
ASOS:119.675   803-929-0665
Clearance:124.4
CTAF:122.8
Columbia App:133.4
Location
Sectional:Charlotte
State:S. Carolina (SC)
City:2nm S of Columbia
Latitude:33' 58" 13.700°N [33.970472°]
Longitude:80' 59" 42.900°W [-80.995250°]
Elevation:193'
Variation:6W
Map  Satellite  Hybrid
Attendance
All months, All days, 6am-10pm
Services
Fuel Available:100LL, Jet A
Airframe Repair:Major
Powerplant Repair:Major
Bottled Oxygen:None
Bulk Oxygen:High/Low
Runways
13/315,011' x 75'Asphalt
Comments

Tower Comments

None

Comments

None
Charts
Instrument Approach Procedures
Minimums
KCUB Information
Temperature: 15°C (59°F)
Dewpoint: 11°C (52°F)
Density Altitude:92' (-101')
Hover over METAR or TAF to decode
METAR
KCUB 221553Z AUTO VRB05KT 10SM CLR 15/11 A3005 RMK AO2 SLP176 T01500111
TAF
KCUB 221538Z 2216/2312 36006KT P6SM SCT250
FM222300 03004KT P6SM SCT250
NOTAMS
Click here

RADAR

Satellite

VFR Sectional

IFR Chart

AIRMETs
David, computers don't call people!
Copyright© Hilton Software LLC 2008-2016